Time,TemperatureF,DewpointF,PressureIn,WindDirection,WindDirectionDegrees,WindSpeedMPH,WindSpeedGustMPH,Humidity,HourlyPrecipIn,Conditions,Clouds,dailyrainin,SoftwareType,DateUTC
2013-05-25 00:03:00,80.0,-99.9,30.09,NNW,335,11.0,14.0,-999,-99.99,,,-99.99,,2013-05-25 04:03:00,
2013-05-25 00:13:00,80.0,-99.9,30.09,NNW,340,11.0,13.0,-999,-99.99,,,-99.99,,2013-05-25 04:13:00,
2013-05-25 00:23:00,80.0,-99.9,30.09,NNW,348,12.0,14.0,-999,-99.99,,,-99.99,,2013-05-25 04:23:00,
2013-05-25 00:33:00,80.0,-99.9,30.09,North,349,14.0,17.0,-999,-99.99,,,-99.99,,2013-05-25 04:33:00,
2013-05-25 00:43:00,80.0,-99.9,30.09,North,351,15.0,17.0,-999,-99.99,,,-99.99,,2013-05-25 04:43:00,
2013-05-25 00:53:00,80.0,-99.9,30.08,North,349,15.0,17.0,-999,-99.99,,,-99.99,,2013-05-25 04:53:00,
2013-05-25 01:02:00,81.0,-99.9,30.09,North,355,16.0,19.0,-999,-99.99,,,-99.99,,2013-05-25 05:02:00,
2013-05-25 01:12:00,81.0,-99.9,30.09,North,356,17.0,19.0,-999,-99.99,,,-99.99,,2013-05-25 05:12:00,
2013-05-25 01:22:00,82.0,-99.9,30.09,North,358,19.0,21.0,-999,-99.99,,,-99.99,,2013-05-25 05:22:00,
2013-05-25 01:32:00,82.0,-99.9,30.09,North,11,17.0,23.0,-999,-99.99,,,-99.99,,2013-05-25 05:32:00,
2013-05-25 01:43:00,82.0,-99.9,30.09,NNE,17,14.0,17.0,-999,-99.99,,,-99.99,,2013-05-25 05:43:00,
2013-05-25 01:52:00,82.0,-99.9,30.08,NNE,22,14.0,17.0,-999,-99.99,,,-99.99,,2013-05-25 05:52:00,
2013-05-25 02:02:00,82.0,-99.9,30.08,NNE,21,15.0,18.0,-999,-99.99,,,-99.99,,2013-05-25 06:02:00,
2013-05-25 02:12:00,82.0,-99.9,30.08,NNE,17,13.0,17.0,-999,-99.99,,,-99.99,,2013-05-25 06:12:00,
2013-05-25 02:22:00,81.0,-99.9,30.08,NNE,19,15.0,16.0,-999,-99.99,,,-99.99,,2013-05-25 06:22:00,
2013-05-25 02:33:00,81.0,-99.9,30.07,NE,42,12.0,16.0,-999,-99.99,,,-99.99,,2013-05-25 06:33:00,
2013-05-25 02:42:00,80.0,-99.9,30.08,NE,35,10.0,17.0,-999,-99.99,,,-99.99,,2013-05-25 06:42:00,
2013-05-25 02:52:00,79.0,-99.9,30.07,NE,48,9.0,13.0,-999,-99.99,,,-99.99,,2013-05-25 06:52:00,
2013-05-25 03:02:00,78.0,-99.9,30.07,NE,49,9.0,15.0,-999,-99.99,,,-99.99,,2013-05-25 07:02:00,
2013-05-25 03:11:00,77.0,-99.9,30.07,ENE,58,11.0,16.0,-999,-99.99,,,-99.99,,2013-05-25 07:11:00,
2013-05-25 03:22:00,77.0,-99.9,30.07,NE,51,11.0,14.0,-999,-99.99,,,-99.99,,2013-05-25 07:22:00,
2013-05-25 03:32:00,77.0,-99.9,30.07,ENE,65,9.0,15.0,-999,-99.99,,,-99.99,,2013-05-25 07:32:00,
2013-05-25 03:42:00,76.0,-99.9,30.07,ENE,76,11.0,15.0,-999,-99.99,,,-99.99,,2013-05-25 07:42:00,
2013-05-25 03:52:00,76.0,-99.9,30.07,East,80,11.0,15.0,-999,-99.99,,,-99.99,,2013-05-25 07:52:00,
2013-05-25 04:02:00,76.0,-99.9,30.07,East,79,11.0,15.0,-999,-99.99,,,-99.99,,2013-05-25 08:02:00,
2013-05-25 04:11:00,76.0,-99.9,30.06,East,79,9.0,15.0,-999,-99.99,,,-99.99,,2013-05-25 08:11:00,
2013-05-25 04:23:00,76.0,-99.9,30.06,ENE,77,8.0,14.0,-999,-99.99,,,-99.99,,2013-05-25 08:23:00,
2013-05-25 04:32:00,76.0,-99.9,30.06,ENE,74,8.0,12.0,-999,-99.99,,,-99.99,,2013-05-25 08:32:00,
2013-05-25 04:42:00,76.0,-99.9,30.06,East,79,10.0,12.0,-999,-99.99,,,-99.99,,2013-05-25 08:42:00,
2013-05-25 04:52:00,76.0,-99.9,30.06,ENE,78,9.0,13.0,-999,-99.99,,,-99.99,,2013-05-25 08:52:00,
2013-05-25 05:02:00,76.0,-99.9,30.06,ENE,77,9.0,14.0,-999,-99.99,,,-99.99,,2013-05-25 09:02:00,
2013-05-25 05:12:00,76.0,-99.9,30.06,ENE,74,11.0,13.0,-999,-99.99,,,-99.99,,2013-05-25 09:12:00,
2013-05-25 05:22:00,76.0,-99.9,30.06,ENE,74,9.0,14.0,-999,-99.99,,,-99.99,,2013-05-25 09:22:00,
2013-05-25 05:33:00,75.0,-99.9,30.06,East,81,11.0,15.0,-999,-99.99,,,-99.99,,2013-05-25 09:33:00,
2013-05-25 05:43:00,75.0,-99.9,30.06,ENE,76,10.0,13.0,-999,-99.99,,,-99.99,,2013-05-25 09:43:00,
2013-05-25 05:53:00,75.0,-99.9,30.07,East,83,7.0,13.0,-999,-99.99,,,-99.99,,2013-05-25 09:53:00,
2013-05-25 06:03:00,75.0,-99.9,30.07,East,79,9.0,12.0,-999,-99.99,,,-99.99,,2013-05-25 10:03:00,
2013-05-25 06:13:00,75.0,-99.9,30.07,ENE,75,9.0,13.0,-999,-99.99,,,-99.99,,2013-05-25 10:13:00,
2013-05-25 06:23:00,74.0,-99.9,30.07,ENE,73,8.0,11.0,-999,-99.99,,,-99.99,,2013-05-25 10:23:00,
2013-05-25 06:33:00,74.0,-99.9,30.08,ENE,67,9.0,12.0,-999,-99.99,,,-99.99,,2013-05-25 10:33:00,
2013-05-25 06:42:00,74.0,-99.9,30.08,ENE,67,8.0,13.0,-999,-99.99,,,-99.99,,2013-05-25 10:42:00,
2013-05-25 06:52:00,74.0,-99.9,30.08,ENE,70,6.0,10.0,-999,-99.99,,,-99.99,,2013-05-25 10:52:00,
2013-05-25 07:03:00,74.0,-99.9,30.09,ENE,72,7.0,10.0,-999,-99.99,,,-99.99,,2013-05-25 11:03:00,
2013-05-25 07:12:00,74.0,-99.9,30.09,East,79,10.0,13.0,-999,-99.99,,,-99.99,,2013-05-25 11:12:00,
2013-05-25 07:22:00,74.0,-99.9,30.10,ENE,74,8.0,11.0,-999,-99.99,,,-99.99,,2013-05-25 11:22:00,
2013-05-25 07:32:00,74.0,-99.9,30.10,ENE,78,8.0,14.0,-999,-99.99,,,-99.99,,2013-05-25 11:32:00,
2013-05-25 07:42:00,74.0,-99.9,30.10,ENE,73,11.0,14.0,-999,-99.99,,,-99.99,,2013-05-25 11:42:00,
2013-05-25 07:53:00,74.0,-99.9,30.11,East,79,10.0,15.0,-999,-99.99,,,-99.99,,2013-05-25 11:53:00,
2013-05-25 08:02:00,75.0,-99.9,30.11,ENE,78,11.0,14.0,-999,-99.99,,,-99.99,,2013-05-25 12:02:00,
2013-05-25 08:12:00,75.0,-99.9,30.11,ENE,74,11.0,14.0,-999,-99.99,,,-99.99,,2013-05-25 12:12:00,
2013-05-25 08:22:00,76.0,-99.9,30.12,ENE,77,9.0,14.0,-999,-99.99,,,-99.99,,2013-05-25 12:22:00,
2013-05-25 08:32:00,76.0,-99.9,30.12,East,85,11.0,15.0,-999,-99.99,,,-99.99,,2013-05-25 12:32:00,
2013-05-25 08:42:00,76.0,-99.9,30.12,East,82,9.0,15.0,-999,-99.99,,,-99.99,,2013-05-25 12:42:00,
2013-05-25 08:52:00,77.0,-99.9,30.13,East,86,9.0,12.0,-999,-99.99,,,-99.99,,2013-05-25 12:52:00,
2013-05-25 09:02:00,77.0,-99.9,30.13,East,89,10.0,16.0,-999,-99.99,,,-99.99,,2013-05-25 13:02:00,
2013-05-25 09:11:00,78.0,-99.9,30.13,East,86,11.0,15.0,-999,-99.99,,,-99.99,,2013-05-25 13:11:00,
2013-05-25 09:22:00,78.0,-99.9,30.14,East,91,10.0,13.0,-999,-99.99,,,-99.99,,2013-05-25 13:22:00,
2013-05-25 09:32:00,79.0,-99.9,30.14,East,81,11.0,16.0,-999,-99.99,,,-99.99,,2013-05-25 13:32:00,
2013-05-25 09:42:00,79.0,-99.9,30.14,East,80,10.0,14.0,-999,-99.99,,,-99.99,,2013-05-25 13:42:00,
2013-05-25 09:52:00,80.0,-99.9,30.15,East,99,10.0,17.0,-999,-99.99,,,-99.99,,2013-05-25 13:52:00,
2013-05-25 10:02:00,80.0,-99.9,30.15,East,88,13.0,19.0,-999,-99.99,,,-99.99,,2013-05-25 14:02:00,
2013-05-25 10:11:00,80.0,-99.9,30.15,East,82,12.0,19.0,-999,-99.99,,,-99.99,,2013-05-25 14:11:00,
2013-05-25 10:22:00,80.0,-99.9,30.15,East,82,12.0,18.0,-999,-99.99,,,-99.99,,2013-05-25 14:22:00,
2013-05-25 10:32:00,81.0,-99.9,30.15,East,100,10.0,20.0,-999,-99.99,,,-99.99,,2013-05-25 14:32:00,
2013-05-25 10:42:00,81.0,-99.9,30.16,ESE,107,12.0,21.0,-999,-99.99,,,-99.99,,2013-05-25 14:42:00,
2013-05-25 10:52:00,81.0,-99.9,30.16,East,87,11.0,17.0,-999,-99.99,,,-99.99,,2013-05-25 14:52:00,
2013-05-25 11:02:00,81.0,-99.9,30.16,ENE,74,15.0,19.0,-999,-99.99,,,-99.99,,2013-05-25 15:02:00,
2013-05-25 11:12:00,81.0,-99.9,30.16,ENE,74,13.0,18.0,-999,-99.99,,,-99.99,,2013-05-25 15:12:00,
2013-05-25 11:22:00,82.0,-99.9,30.17,East,90,13.0,17.0,-999,-99.99,,,-99.99,,2013-05-25 15:22:00,
2013-05-25 11:33:00,82.0,-99.9,30.17,East,85,11.0,16.0,-999,-99.99,,,-99.99,,2013-05-25 15:33:00,
2013-05-25 11:43:00,83.0,-99.9,30.17,East,86,12.0,15.0,-999,-99.99,,,-99.99,,2013-05-25 15:43:00,
2013-05-25 11:53:00,83.0,-99.9,30.17,ENE,69,9.0,17.0,-999,-99.99,,,-99.99,,2013-05-25 15:53:00,
2013-05-25 12:03:00,83.0,-99.9,30.17,ENE,74,12.0,18.0,-999,-99.99,,,-99.99,,2013-05-25 16:03:00,
2013-05-25 12:12:00,83.0,-99.9,30.17,ENE,73,9.0,17.0,-999,-99.99,,,-99.99,,2013-05-25 16:12:00,
2013-05-25 12:23:00,84.0,-99.9,30.17,ENE,74,7.0,13.0,-999,-99.99,,,-99.99,,2013-05-25 16:23:00,
2013-05-25 12:33:00,83.0,-99.9,30.17,ENE,70,12.0,15.0,-999,-99.99,,,-99.99,,2013-05-25 16:33:00,
2013-05-25 12:42:00,83.0,-99.9,30.17,ENE,57,9.0,14.0,-999,-99.99,,,-99.99,,2013-05-25 16:42:00,
2013-05-25 12:52:00,84.0,-99.9,30.17,ESE,106,10.0,17.0,-999,-99.99,,,-99.99,,2013-05-25 16:52:00,
2013-05-25 13:03:00,84.0,-99.9,30.17,East,85,10.0,15.0,-999,-99.99,,,-99.99,,2013-05-25 17:03:00,
2013-05-25 13:11:00,85.0,-99.9,30.17,East,97,7.0,13.0,-999,-99.99,,,-99.99,,2013-05-25 17:11:00,
2013-05-25 13:22:00,84.0,-99.9,30.17,NE,54,7.0,12.0,-999,-99.99,,,-99.99,,2013-05-25 17:22:00,
2013-05-25 13:33:00,85.0,-99.9,30.17,ENE,68,9.0,13.0,-999,-99.99,,,-99.99,,2013-05-25 17:33:00,
2013-05-25 13:42:00,85.0,-99.9,30.17,ESE,105,8.0,13.0,-999,-99.99,,,-99.99,,2013-05-25 17:42:00,
2013-05-25 13:52:00,85.0,-99.9,30.16,ESE,103,8.0,12.0,-999,-99.99,,,-99.99,,2013-05-25 17:52:00,
2013-05-25 14:02:00,85.0,-99.9,30.16,NE,48,8.0,14.0,-999,-99.99,,,-99.99,,2013-05-25 18:02:00,
2013-05-25 14:12:00,85.0,-99.9,30.16,ENE,57,3.0,10.0,-999,-99.99,,,-99.99,,2013-05-25 18:12:00,
2013-05-25 14:22:00,85.0,-99.9,30.16,ENE,57,3.0,10.0,-999,-99.99,,,-99.99,,2013-05-25 18:22:00,
2013-05-25 14:32:00,85.0,-99.9,30.16,ENE,57,3.0,10.0,-999,-99.99,,,-99.99,,2013-05-25 18:32:00,
2013-05-25 14:52:00,85.0,-99.9,30.15,East,89,4.0,9.0,-999,-99.99,,,-99.99,,2013-05-25 18:52:00,
2013-05-25 15:02:00,85.0,-99.9,30.14,ENE,65,8.0,12.0,-999,-99.99,,,-99.99,,2013-05-25 19:02:00,
2013-05-25 15:11:00,86.0,-99.9,30.14,NE,56,6.0,9.0,-999,-99.99,,,-99.99,,2013-05-25 19:11:00,
2013-05-25 15:22:00,86.0,-99.9,30.14,NE,47,7.0,10.0,-999,-99.99,,,-99.99,,2013-05-25 19:22:00,
2013-05-25 15:32:00,86.0,-99.9,30.13,NE,39,4.0,8.0,-999,-99.99,,,-99.99,,2013-05-25 19:32:00,
2013-05-25 15:42:00,87.0,-99.9,30.13,ENE,70,1.0,6.0,-999,-99.99,,,-99.99,,2013-05-25 19:42:00,
2013-05-25 15:52:00,86.0,-99.9,30.13,ENE,67,5.0,10.0,-999,-99.99,,,-99.99,,2013-05-25 19:52:00,
2013-05-25 16:02:00,86.0,-99.9,30.13,SSE,149,8.0,11.0,-999,-99.99,,,-99.99,,2013-05-25 20:02:00,
2013-05-25 16:11:00,86.0,-99.9,30.13,SE,129,7.0,9.0,-999,-99.99,,,-99.99,,2013-05-25 20:11:00,
2013-05-25 16:22:00,87.0,-99.9,30.12,NNE,20,2.0,7.0,-999,-99.99,,,-99.99,,2013-05-25 20:22:00,
2013-05-25 16:32:00,87.0,-99.9,30.12,NNE,20,2.0,7.0,-999,-99.99,,,-99.99,,2013-05-25 20:32:00,
2013-05-25 16:42:00,87.0,-99.9,30.11,ESE,115,3.0,4.0,-999,-99.99,,,-99.99,,2013-05-25 20:42:00,
2013-05-25 16:52:00,84.0,-99.9,30.11,North,10,13.0,20.0,-999,-99.99,,,-99.99,,2013-05-25 20:52:00,
2013-05-25 17:02:00,83.0,-99.9,30.11,North,357,15.0,19.0,-999,-99.99,,,-99.99,,2013-05-25 21:02:00,
2013-05-25 17:11:00,83.0,-99.9,30.11,North,357,17.0,21.0,-999,-99.99,,,-99.99,,2013-05-25 21:11:00,
2013-05-25 17:22:00,83.0,-99.9,30.11,North,354,17.0,20.0,-999,-99.99,,,-99.99,,2013-05-25 21:22:00,
2013-05-25 17:33:00,83.0,-99.9,30.11,North,355,19.0,23.0,-999,-99.99,,,-99.99,,2013-05-25 21:33:00,
2013-05-25 17:43:00,83.0,-99.9,30.11,North,356,19.0,22.0,-999,-99.99,,,-99.99,,2013-05-25 21:43:00,
2013-05-25 17:53:00,83.0,-99.9,30.10,North,356,16.0,19.0,-999,-99.99,,,-99.99,,2013-05-25 21:53:00,
2013-05-25 18:03:00,83.0,-99.9,30.10,North,356,16.0,19.0,-999,-99.99,,,-99.99,,2013-05-25 22:03:00,
2013-05-25 18:13:00,83.0,-99.9,30.10,North,-999,17.0,21.0,-999,-99.99,,,-99.99,,2013-05-25 22:13:00,
2013-05-25 18:23:00,83.0,-99.9,30.10,North,352,19.0,20.0,-999,-99.99,,,-99.99,,2013-05-25 22:23:00,
2013-05-25 18:33:00,83.0,-99.9,30.10,North,353,15.0,19.0,-999,-99.99,,,-99.99,,2013-05-25 22:33:00,
2013-05-25 18:42:00,83.0,-99.9,30.10,North,355,16.0,18.0,-999,-99.99,,,-99.99,,2013-05-25 22:42:00,
2013-05-25 18:52:00,83.0,-99.9,30.10,North,355,17.0,20.0,-999,-99.99,,,-99.99,,2013-05-25 22:52:00,
2013-05-25 19:02:00,83.0,-99.9,30.10,North,358,18.0,20.0,-999,-99.99,,,-99.99,,2013-05-25 23:02:00,
2013-05-25 19:12:00,83.0,-99.9,30.10,North,354,17.0,20.0,-999,-99.99,,,-99.99,,2013-05-25 23:12:00,
2013-05-25 19:22:00,83.0,-99.9,30.10,North,360,18.0,20.0,-999,-99.99,,,-99.99,,2013-05-25 23:22:00,
2013-05-25 19:32:00,83.0,-99.9,30.10,North,354,18.0,21.0,-999,-99.99,,,-99.99,,2013-05-25 23:32:00,
2013-05-25 19:42:00,83.0,-99.9,30.10,North,360,18.0,21.0,-999,-99.99,,,-99.99,,2013-05-25 23:42:00,
2013-05-25 19:53:00,83.0,-99.9,30.10,North,354,18.0,21.0,-999,-99.99,,,-99.99,,2013-05-25 23:53:00,
2013-05-25 20:02:00,83.0,-99.9,30.10,North,5,18.0,21.0,-999,-99.99,,,-99.99,,2013-05-26 00:02:00,
2013-05-25 20:12:00,83.0,-99.9,30.10,North,8,16.0,21.0,-999,-99.99,,,-99.99,,2013-05-26 00:12:00,
2013-05-25 20:22:00,83.0,-99.9,30.11,North,2,19.0,21.0,-999,-99.99,,,-99.99,,2013-05-26 00:22:00,
2013-05-25 20:32:00,83.0,-99.9,30.11,North,10,20.0,23.0,-999,-99.99,,,-99.99,,2013-05-26 00:32:00,
2013-05-25 20:43:00,83.0,-99.9,30.11,North,7,18.0,23.0,-999,-99.99,,,-99.99,,2013-05-26 00:43:00,
2013-05-25 20:53:00,84.0,-99.9,30.11,NNE,32,10.0,16.0,-999,-99.99,,,-99.99,,2013-05-26 00:53:00,
2013-05-25 21:01:00,84.0,-99.9,30.11,NE,51,9.0,15.0,-999,-99.99,,,-99.99,,2013-05-26 01:01:00,
2013-05-25 21:11:00,84.0,-99.9,30.11,ENE,63,8.0,13.0,-999,-99.99,,,-99.99,,2013-05-26 01:11:00,
2013-05-25 21:21:00,84.0,-99.9,30.11,ENE,69,11.0,17.0,-999,-99.99,,,-99.99,,2013-05-26 01:21:00,
2013-05-25 21:32:00,83.0,-99.9,30.11,ENE,75,13.0,17.0,-999,-99.99,,,-99.99,,2013-05-26 01:32:00,
2013-05-25 21:42:00,83.0,-99.9,30.12,East,80,8.0,16.0,-999,-99.99,,,-99.99,,2013-05-26 01:42:00,
2013-05-25 21:53:00,82.0,-99.9,30.12,ENE,78,12.0,15.0,-999,-99.99,,,-99.99,,2013-05-26 01:53:00,
2013-05-25 22:02:00,82.0,-99.9,30.12,East,84,12.0,19.0,-999,-99.99,,,-99.99,,2013-05-26 02:02:00,
2013-05-25 22:11:00,82.0,-99.9,30.12,ENE,77,11.0,15.0,-999,-99.99,,,-99.99,,2013-05-26 02:11:00,
2013-05-25 22:22:00,81.0,-99.9,30.13,East,90,13.0,17.0,-999,-99.99,,,-99.99,,2013-05-26 02:22:00,
2013-05-25 22:32:00,81.0,-99.9,30.13,East,90,13.0,17.0,-999,-99.99,,,-99.99,,2013-05-26 02:32:00,
2013-05-25 22:42:00,81.0,-99.9,30.13,East,90,13.0,17.0,-999,-99.99,,,-99.99,,2013-05-26 02:42:00,
2013-05-25 22:52:00,80.0,-99.9,30.14,East,86,9.0,17.0,-999,-99.99,,,-99.99,,2013-05-26 02:52:00,
2013-05-25 23:01:00,80.0,-99.9,30.14,East,84,10.0,16.0,-999,-99.99,,,-99.99,,2013-05-26 03:01:00,
2013-05-25 23:11:00,79.0,-99.9,30.14,ENE,77,13.0,17.0,-999,-99.99,,,-99.99,,2013-05-26 03:11:00,
2013-05-25 23:22:00,79.0,-99.9,30.15,ENE,74,14.0,21.0,-999,-99.99,,,-99.99,,2013-05-26 03:22:00,
2013-05-25 23:33:00,78.0,-99.9,30.15,East,95,9.0,16.0,-999,-99.99,,,-99.99,,2013-05-26 03:33:00,
2013-05-25 23:43:00,78.0,-99.9,30.15,East,89,10.0,16.0,-999,-99.99,,,-99.99,,2013-05-26 03:43:00,
2013-05-25 23:53:00,78.0,-99.9,30.16,East,88,15.0,20.0,-999,-99.99,,,-99.99,,2013-05-26 03:53:00,